Regional Weather Roundup
Issued by NWS Cleveland, OH

Home | Current Version | Previous Version | Text Only | Print | Product List | Glossary Off
Versions: 1 2 3 4 5 6 7 8 9 10 11 12 13 14 15 16 17 18 19 20 21 22 23 24 25 26 27 28 29 30 31 32 33 34 35 36 37 38 39 40 41 42 43 44 45 46 47 48 49 50

000
ASUS41 KCLE 301110
RWRCLE
OHIO REGIONAL WEATHER ROUNDUP
NATIONAL WEATHER SERVICE CLEVELAND, OH
700 AM EDT THU MAR 30 2017

NOTE: "FAIR" INDICATES FEW OR NO CLOUDS BELOW 12,000 FEET WITH NO
SIGNIFICANT WEATHER AND/OR OBSTRUCTIONS TO VISIBILITY.

OHZ001>008-015>018-024>027-034-035-043-044-301200-
   NORTHWEST OHIO

CITY           SKY/WX    TMP DP  RH WIND       PRES   REMARKS
DEFIANCE       LGT RAIN  40  35  83 E17       29.91F
FINDLAY        CLOUDY    44  36  73 E13       29.89F
TOLEDO EXPRESS TSTM      41  34  76 E23G30    29.92F
TOLEDO EXEC    CLOUDY    42  36  79 E15G25    29.97F
LIMA           CLOUDY    45  36  70 E23       29.86F
$$

OHZ009>014-019>023-028>033-038-089-301200-
   NORTHEAST OHIO

CITY           SKY/WX    TMP DP  RH WIND       PRES   REMARKS
CLE-HOPKINS    CLOUDY    45  33  63 E16       30.04F
CLE-LAKEFRONT  CLOUDY    45  33  63 E12G21    30.02F
CUY CO. ARPT   LGT RAIN  45  34  65 E14       30.03
LORAIN-ELYRIA  CLOUDY    42  34  73 E12       30.00F
ASHTABULA      CLOUDY    43  30  60 SE9       30.10F
AKRON-CANTON   CLOUDY    46  30  53 E15       30.01F
WOOSTER        CLOUDY    44  31  60 E18G25    29.98F
MANSFIELD      CLOUDY    45  32  60 E14       29.96F
YOUNGSTOWN     CLOUDY    44  29  55 E13       30.08F
$$

OHZ042-051>053-060>062-070>072-077>081-301200-
  SOUTHWEST OHIO

CITY           SKY/WX    TMP DP  RH WIND       PRES   REMARKS
CINC-COVINGTON CLOUDY    52  45  77 SE9       29.82F
CINC-LUNKEN    CLOUDY    50  49  96 CALM      29.85F
HAMILTON       CLOUDY    51  44  77 E7        29.86F
DAYTON         CLOUDY    49  34  56 E16       29.86F
WRIGHT-PAT AFB CLOUDY    50  34  53 E12       29.86F
DAYTON GENERAL CLOUDY    49  38  65 E15       29.84F
WILMINGTON     CLOUDY    47  38  71 E13G20    29.86F
$$

OHZ036-037-039>041-045>050-054>059-063>069-073>076-082>088-301200-
  CENTRAL AND SOUTHEAST OHIO

CITY           SKY/WX    TMP DP  RH WIND       PRES   REMARKS
COLUMBUS       CLOUDY    49  33  54 E10       29.92F
OSU AIRPORT    MOCLDY    48  34  58 E13       29.91F
BOLTON FIELD   CLOUDY    48  33  55 E10G16    29.91F
RICKENBACK AFB CLOUDY    47  35  63 E13       29.91F
NEWARK         CLOUDY    48  31  51 E12       29.95F
MARION         CLOUDY    47  33  58 E17       29.92F
LANCASTER      MOCLDY    50  35  56 E8        29.94F
ZANESVILLE     CLOUDY    49  31  49 E10       29.97F
NEW PHILLY     NOT AVBL
$$




USA.gov is the U.S. government's official web portal to all federal, state and local government web resources and services.